Location: Kershaw
(34.5481°N, 80.5823°W)
Time: 14:12:27
(UTC+00:00)

Transit 4A - Pass Details

Date: 07 October 2022
Orbit: 871 x 972 km, 66.8° (Epoch: 29 November)

Event Time Altitude Azimuth Distance (km) Brightness Sun altitude
Rises 11:20:33 0° 337° (NNW) 3,477 10.6 -1.0°
Reaches altitude 10° 11:23:05 10° 340° (NNW) 2,529 9.9 -0.5°
Maximum altitude 11:28:51 63° 62° (ENE) 968 8.4 0.7°
Drops below altitude 10° 11:34:36 10° 143° (SE) 2,516 11.0 1.8°
Sets 11:37:06 0° 146° (SE) 3,457 11.6 2.3°
